This is the latest recevied weather packets stored in our database for station/object KD8OZS. If no packets are shown the sender has not sent any weather packets the latest 10 day(s).
| Time | Temp. | Humidity | Pressure | Rain* | Wind** | Luminosity | Snow |
|---|---|---|---|---|---|---|---|
| 1778156015 | 6.11° C | 91% | 1006.1 hPa | 0 mm | - | 130 W/m² | - |
| 1778155712 | 5.56° C | 95% | 1006 hPa | 0 mm | - | 149 W/m² | - |
| 1778155409 | 5.56° C | 97% | 1005.9 hPa | 0 mm | - | 137 W/m² | - |
| 1778155105 | 5.56° C | 98% | 1006 hPa | 0 mm | - | 119 W/m² | - |
| 1778154800 | 5° C | 98% | 1006.1 hPa | 0 mm | - | 115 W/m² | - |
| 1778154497 | 5° C | 98% | 1006 hPa | 0 mm | - | 104 W/m² | - |
| 1778154194 | 4.44° C | 98% | 1006 hPa | 0 mm | - | 90 W/m² | - |
| 1778153892 | 3.89° C | 98% | 1006.1 hPa | 0 mm | - | 82 W/m² | - |
| 1778153588 | 3.33° C | 98% | 1006.2 hPa | 0 mm | - | 73 W/m² | - |
| 1778153286 | 2.78° C | 99% | 1006.1 hPa | 0 mm | - | 63 W/m² | - |
| 1778152983 | 2.22° C | 99% | 1005.9 hPa | 0 mm | - | 46 W/m² | - |
| 1778152681 | 1.67° C | 99% | 1005.9 hPa | 0 mm | - | 31 W/m² | - |
| 1778152377 | 1.67° C | 99% | 1005.9 hPa | 0 mm | - | 27 W/m² | - |
| 1778152073 | 1.11° C | 99% | 1005.8 hPa | 0 mm | - | 25 W/m² | - |
| 1778151770 | 1.11° C | 99% | 1005.8 hPa | 0 mm | - | 22 W/m² | - |
| 1778151467 | 1.11° C | 99% | 1005.8 hPa | 0 mm | - | 20 W/m² | - |
| 1778151162 | 1.11° C | 98% | 1005.5 hPa | 0 mm | - | 17 W/m² | - |
| 1778150860 | 1.11° C | 99% | 1006 hPa | 0 mm | - | 14 W/m² | - |
| 1778150557 | 1.11° C | 99% | 1005.8 hPa | 0 mm | - | 12 W/m² | - |
| 1778150252 | 0.56° C | 98% | 1005.7 hPa | 0 mm | - | 8 W/m² | - |
| 1778149949 | 0.56° C | 98% | 1005.4 hPa | 0 mm | - | 6 W/m² | - |
| 1778149645 | 1.11° C | 98% | 1005.6 hPa | 0 mm | - | 3 W/m² | - |
| 1778149342 | 0.56° C | 98% | 1005.4 hPa | 0 mm | - | 1 W/m² | - |
| 1778149038 | 0.56° C | 98% | 1005.5 hPa | 0 mm | - | 0 W/m² | - |
| 1778148733 | 1.11° C | 98% | 1005.7 hPa | 0 mm | - | 0 W/m² | - |
* Rain latest hour (hover to see other rain measurements)
** Current wind speed in m/s (hover to see current wind gust speed)